Regional Weather Roundup
Issued by NWS

Home | Current Version | Previous Version | Text Only | Print | Product List | Glossary Off
Versions: 1 2 3 4 5 6 7 8 9 10 11 12 13 14 15 16 17 18 19 20 21 22 23 24 25 26 27 28 29 30 31 32 33 34 35 36 37 38 39 40 41 42 43 44 45 46 47 48 49 50

000
ASUS43 KLMK 210002
RWRKY
KENTUCKY REGIONAL WEATHER ROUNDUP
NATIONAL WEATHER SERVICE LOUISVILLE KY
800 PM EDT SAT SEP 20 2014

NOTE "FAIR" INDICATES FEW OR NO CLOUDS BELOW 12,000 FEET
WITH NO SIGNIFICANT WEATHER AND/OR OBSTRUCTIONS TO VISIBILITY.

KYZ001>023-026-027-061>063-070>075-210100-
WESTERN AND SOUTH CENTRAL KENTUCKY

CITY           SKY/WX    TMP DP  RH WIND       PRES   REMARKS
PADUCAH        CLEAR     81  68  64 S3        29.95S
HENDERSON      PTCLDY    79  63  57 SW6       29.94S
OWENSBORO      CLEAR     78  66  66 W3        29.96R
HOPKINSVILLE   CLEAR     79  68  68 S5        29.97F
BOWLING GREEN  CLEAR     76  67  73 S5        29.98S
GLASGOW        CLOUDY    73  66  78 CALM      29.99S
$$

KYZ024-025-028>034-038-045-046-053-210100-
NORTH CENTRAL KENTUCKY

CITY           SKY/WX    TMP DP  RH WIND       PRES   REMARKS
LOUISVILLE/SDF MOCLDY    78  65  63 SW6       29.95R
LOUISVILLE/LOU CLEAR     79  65  62 S3        29.96R
FORT KNOX      CLEAR     75  65  72 S3        29.96R
$$

KYZ035>037-039>044-047>052-055>060-089>105-210100-
NORTHEAST KENTUCKY

CITY           SKY/WX    TMP DP  RH WIND       PRES   REMARKS
LEXINGTON      CLEAR     74  63  68 SW7       29.99R
COVINGTON      MOCLDY    75  64  68 SW5       29.97R
FRANKFORT      CLEAR     74  64  71 CALM      29.98R
$$

KYZ054-064>069-076>088-106>120-210100-
SOUTHEAST KENTUCKY

CITY           SKY/WX    TMP DP  RH WIND       PRES   REMARKS
JACKSON        CLEAR     72  63  73 S3        30.02F
LONDON         CLEAR     75  63  66 CALM      30.02F
SOMERSET       CLEAR     73  61  64 CALM      30.02S
MIDDLESBORO    CLEAR     70  64  81 CALM      30.03F
MONTICELLO     CLEAR     71  65  81 CALM      30.02F
$$



USA.gov is the U.S. government's official web portal to all federal, state and local government web resources and services.